,,PA_Meas_PMT16A,,PR_Meas_QMR101_102,,RH_Meas_QMH101,,SR_Meas_QMS101,,TA_Meas_QMH101,,GenWind,,GenWind,
time,status,PA,status,PR,status,RH,status,SR,status,TA,status,DirAvg,status,SpdAvg,
2012-06-07, 00:00:04,VALID,915.059,VALID,0,VALID,87.9285,VALID,0,VALID,20.2293,VALID,256,VALID,0.674609,
2012-06-07, 00:01:04,VALID,915.051,VALID,0,VALID,88.02,VALID,0,VALID,20.3074,VALID,48,VALID,0.559766,
2012-06-07, 00:02:04,VALID,915.055,VALID,0,VALID,87.3948,VALID,0,VALID,20.3269,VALID,290,VALID,0.730469,
2012-06-07, 00:03:04,VALID,915.06,VALID,0,VALID,86.8612,VALID,0,VALID,20.4244,VALID,250,VALID,0.604297,
2012-06-07, 00:04:04,VALID,915.087,VALID,0,VALID,86.8155,VALID,0,VALID,20.5024,VALID,258,VALID,0.860547,
2012-06-07, 00:05:04,VALID,915.058,VALID,0,VALID,86.3733,VALID,0,VALID,20.5414,VALID,22,VALID,0.451562,
2012-06-07, 00:06:04,VALID,915.087,VALID,0,VALID,86.2666,VALID,0,VALID,20.5804,VALID,313,VALID,0.0546875,
2012-06-07, 00:07:04,VALID,915.067,VALID,0,VALID,85.1078,VALID,0,VALID,20.717,VALID,282,VALID,1.48945,
2012-06-07, 00:08:04,VALID,915.079,VALID,0,VALID,84.3607,VALID,0,VALID,20.8519,VALID,302,VALID,0.363281,
2012-06-07, 00:09:04,VALID,915.041,VALID,0,VALID,84.0405,VALID,0,VALID,20.93,VALID,60,VALID,0.826563,
2012-06-07, 00:10:04,VALID,915.057,VALID,0,VALID,84.315,VALID,0,VALID,20.9495,VALID,106,VALID,0.796875,
2012-06-07, 00:11:04,VALID,915.094,VALID,0,VALID,84.193,VALID,0,VALID,20.9495,VALID,243,VALID,0.736719,
2012-06-07, 00:12:04,VALID,915.114,VALID,0,VALID,84.3531,VALID,0.107441,VALID,20.9495,VALID,231,VALID,0.60625,
2012-06-07, 00:13:04,VALID,915.106,VALID,0,VALID,84.0863,VALID,0,VALID,20.969,VALID,269,VALID,1.72539,
2012-06-07, 00:14:04,VALID,915.103,VALID,0,VALID,84.315,VALID,0,VALID,20.9885,VALID,262,VALID,0.402344,
2012-06-07, 00:15:04,VALID,915.083,VALID,0,VALID,84.2464,VALID,0.107441,VALID,20.9869,VALID,262,VALID,0.337109,
2012-06-07, 00:16:04,VALID,915.079,VALID,0,VALID,84.5666,VALID,0,VALID,20.9885,VALID,66,VALID,1.05156,
2012-06-07, 00:17:04,VALID,915.024,VALID,0,VALID,84.6733,VALID,0,VALID,20.9495,VALID,186,VALID,0.7375,
2012-06-07, 00:18:04,VALID,915.025,VALID,0,VALID,85.0392,VALID,0,VALID,20.93,VALID,85,VALID,0.500391,
2012-06-07, 00:19:04,VALID,915.06,VALID,0,VALID,84.8181,VALID,0.107441,VALID,20.9105,VALID,85,VALID,0.128125,
2012-06-07, 00:20:04,VALID,915.037,VALID,0,VALID,85.4051,VALID,0,VALID,20.891,VALID,85,VALID,0.532812,
2012-06-07, 00:21:04,VALID,915.027,VALID,0,VALID,85.7939,VALID,0,VALID,20.8535,VALID,85,VALID,0.178125,
2012-06-07, 00:22:04,VALID,915.06,VALID,0,VALID,85.893,VALID,0,VALID,20.7739,VALID,85,VALID,0.0933594,
2012-06-07, 00:23:04,VALID,915.043,VALID,0,VALID,86.5258,VALID,0,VALID,20.7349,VALID,317,VALID,0.517578,
2012-06-07, 00:24:04,VALID,915.038,VALID,0,VALID,86.4724,VALID,0,VALID,20.678,VALID,314,VALID,0.512109,
2012-06-07, 00:25:04,VALID,915.026,VALID,0,VALID,86.602,VALID,0,VALID,20.6585,VALID,201,VALID,0.5125,
2012-06-07, 00:26:04,VALID,914.997,VALID,0,VALID,86.6706,VALID,0,VALID,20.6585,VALID,107,VALID,0.951172,
2012-06-07, 00:27:04,VALID,915.019,VALID,0,VALID,86.6401,VALID,0,VALID,20.6585,VALID,38,VALID,0.096875,
2012-06-07, 00:28:04,VALID,915.003,VALID,0,VALID,86.1675,VALID,0,VALID,20.6585,VALID,348,VALID,0.633594,
2012-06-07, 00:29:04,VALID,915.094,VALID,0,VALID,86.4495,VALID,0,VALID,20.6975,VALID,229,VALID,0.00585938,
2012-06-07, 00:30:04,VALID,915.034,VALID,0,VALID,86.2208,VALID,0,VALID,20.6975,VALID,226,VALID,0.43125,
2012-06-07, 00:31:04,VALID,915.047,VALID,0,VALID,86.4953,VALID,0,VALID,20.717,VALID,330,VALID,0.447656,
2012-06-07, 00:32:04,VALID,915.018,VALID,0,VALID,86.0455,VALID,0,VALID,20.7365,VALID,65,VALID,1.81523,
2012-06-07, 00:33:04,VALID,914.949,VALID,0,VALID,86.4724,VALID,0,VALID,20.7349,VALID,48,VALID,0.550781,
2012-06-07, 00:34:04,VALID,914.977,VALID,0,VALID,86.6935,VALID,0,VALID,20.7365,VALID,54,VALID,0.715234,
2012-06-07, 00:35:04,VALID,914.933,VALID,0,VALID,86.6249,VALID,0,VALID,20.6764,VALID,33,VALID,1.09844,
2012-06-07, 00:36:04,VALID,914.942,VALID,0,VALID,86.7697,VALID,0,VALID,20.678,VALID,210,VALID,0.155078,
2012-06-07, 00:37:04,VALID,914.854,VALID,0,VALID,86.5944,VALID,0,VALID,20.6374,VALID,58,VALID,1.88008,
2012-06-07, 00:38:04,VALID,914.844,VALID,0,VALID,86.4724,VALID,0,VALID,20.6374,VALID,155,VALID,0.496484,
2012-06-07, 00:39:04,VALID,914.845,VALID,0,VALID,86.6477,VALID,0,VALID,20.6585,VALID,29,VALID,0.821875,
2012-06-07, 00:40:04,VALID,914.852,VALID,0,VALID,86.3352,VALID,0,VALID,20.678,VALID,313,VALID,0.513281,
2012-06-07, 00:41:04,VALID,914.833,VALID,0,VALID,86.7164,VALID,0,VALID,20.717,VALID,46,VALID,1.14453,
2012-06-07, 00:42:04,VALID,914.76,VALID,0,VALID,86.602,VALID,0,VALID,20.6764,VALID,330,VALID,1.02852,
2012-06-07, 00:43:04,VALID,914.772,VALID,0,VALID,86.2589,VALID,0,VALID,20.6585,VALID,194,VALID,0.718359,
2012-06-07, 00:44:04,VALID,914.789,VALID,0,VALID,86.076,VALID,0,VALID,20.7365,VALID,86,VALID,1.10781,
2012-06-07, 00:45:04,VALID,914.788,VALID,0,VALID,86.5715,VALID,0,VALID,20.7365,VALID,27,VALID,1.21875,
2012-06-07, 00:46:04,VALID,914.793,VALID,0,VALID,86.5868,VALID,0,VALID,20.6975,VALID,27,VALID,0.834766,
2012-06-07, 00:47:04,VALID,914.788,VALID,0,VALID,86.4419,VALID,0,VALID,20.678,VALID,25,VALID,0.415234,
2012-06-07, 00:48:04,VALID,914.775,VALID,0,VALID,86.4877,VALID,0,VALID,20.678,VALID,54,VALID,1.2082,
2012-06-07, 00:49:04,VALID,914.752,VALID,0,VALID,86.785,VALID,0,VALID,20.6569,VALID,33,VALID,1.625,
2012-06-07, 00:50:04,VALID,914.717,VALID,0,VALID,86.663,VALID,0,VALID,20.6585,VALID,29,VALID,1.38047,
2012-06-07, 00:51:04,VALID,914.752,VALID,0,VALID,86.6554,VALID,0,VALID,20.639,VALID,23,VALID,1.43516,
2012-06-07, 00:52:04,VALID,914.743,VALID,0,VALID,86.6249,VALID,0,VALID,20.639,VALID,8,VALID,0.424219,
2012-06-07, 00:53:04,VALID,914.677,VALID,0,VALID,87.0823,VALID,0,VALID,20.639,VALID,26,VALID,2.19102,
2012-06-07, 00:54:04,VALID,914.725,VALID,0,VALID,86.3199,VALID,0,VALID,20.6374,VALID,298,VALID,2.87617,
2012-06-07, 00:55:04,VALID,914.716,VALID,0,VALID,86.4114,VALID,0,VALID,20.7154,VALID,48,VALID,1.25625,
2012-06-07, 00:56:04,VALID,914.679,VALID,0,VALID,86.4343,VALID,0.107441,VALID,20.7138,VALID,284,VALID,1.09922,
2012-06-07, 00:57:04,VALID,914.66,VALID,0,VALID,86.3657,VALID,0,VALID,20.7349,VALID,91,VALID,1.4457,
2012-06-07, 00:58:04,VALID,914.647,VALID,0,VALID,86.3809,VALID,0.107441,VALID,20.7349,VALID,351,VALID,0.599219,
2012-06-07, 00:59:04,VALID,914.624,VALID,0,VALID,86.4038,VALID,0,VALID,20.7349,VALID,48,VALID,1.33164,
2012-06-07, 01:00:04,VALID,914.617,VALID,0,VALID,86.6554,VALID,0,VALID,20.7349,VALID,37,VALID,1.35312,
2012-06-07, 01:01:04,VALID,914.583,VALID,0,VALID,86.7697,VALID,0,VALID,20.7154,VALID,85,VALID,0.692187,
2012-06-07, 01:02:04,VALID,914.5,VALID,0,VALID,86.6325,VALID,0.107441,VALID,20.6959,VALID,124,VALID,1.12266,
2012-06-07, 01:03:04,VALID,914.511,VALID,0,VALID,86.48,VALID,0,VALID,20.6959,VALID,145,VALID,0.610156,
2012-06-07, 01:04:04,VALID,914.477,VALID,0,VALID,86.5029,VALID,0,VALID,20.7154,VALID,114,VALID,0.860547,
2012-06-07, 01:05:04,VALID,914.466,VALID,0,VALID,86.846,VALID,0,VALID,20.7154,VALID,132,VALID,0.589844,
2012-06-07, 01:06:04,VALID,914.432,VALID,0,VALID,86.2818,VALID,0,VALID,20.7154,VALID,209,VALID,0.955859,
2012-06-07, 01:07:04,VALID,914.388,VALID,0,VALID,86.7164,VALID,0,VALID,20.7544,VALID,230,VALID,0.494141,
2012-06-07, 01:08:04,VALID,914.369,VALID,0,VALID,86.8536,VALID,0,VALID,20.7349,VALID,40,VALID,1.57344,
2012-06-07, 01:09:04,VALID,914.345,VALID,0,VALID,86.8688,VALID,0,VALID,20.7349,VALID,51,VALID,1.49648,
2012-06-07, 01:10:04,VALID,914.404,VALID,0,VALID,86.7316,VALID,0.107441,VALID,20.7154,VALID,15,VALID,0.239453,
2012-06-07, 01:11:04,VALID,914.334,VALID,0,VALID,86.7545,VALID,0.107441,VALID,20.7349,VALID,16,VALID,0.280469,
2012-06-07, 01:12:04,VALID,914.343,VALID,0,VALID,86.7926,VALID,0,VALID,20.7544,VALID,65,VALID,0.328125,
2012-06-07, 01:13:04,VALID,914.307,VALID,0,VALID,86.9069,VALID,0,VALID,20.7544,VALID,47,VALID,1.39961,
2012-06-07, 01:14:04,VALID,914.365,VALID,0,VALID,86.8993,VALID,0.107441,VALID,20.7349,VALID,15,VALID,0.699609,
2012-06-07, 01:15:04,VALID,914.221,VALID,0,VALID,86.9451,VALID,0,VALID,20.7365,VALID,36,VALID,0.842969,
2012-06-07, 01:16:04,VALID,914.255,VALID,0,VALID,87.1509,VALID,0,VALID,20.6959,VALID,86,VALID,0.924219,
2012-06-07, 01:17:04,VALID,914.213,VALID,0,VALID,87.0823,VALID,0.107441,VALID,20.6764,VALID,105,VALID,0.276953,
2012-06-07, 01:18:04,VALID,914.235,VALID,0,VALID,87.1128,VALID,0,VALID,20.6959,VALID,17,VALID,1.08086,
2012-06-07, 01:19:04,VALID,914.249,VALID,0,VALID,87.0747,VALID,0,VALID,20.6959,VALID,277,VALID,0.606641,
2012-06-07, 01:20:04,VALID,914.196,VALID,0,VALID,86.8917,VALID,0,VALID,20.6764,VALID,155,VALID,0.664063,
2012-06-07, 01:21:04,VALID,914.232,VALID,0,VALID,86.9069,VALID,0,VALID,20.6959,VALID,130,VALID,0.826563,
2012-06-07, 01:22:04,VALID,914.181,VALID,0,VALID,86.7316,VALID,0,VALID,20.7349,VALID,88,VALID,0.416016,
2012-06-07, 01:23:04,VALID,914.206,VALID,0,VALID,87.3567,VALID,0,VALID,20.7349,VALID,35,VALID,0.432031,
2012-06-07, 01:24:04,VALID,914.136,VALID,0,VALID,86.9908,VALID,0,VALID,20.717,VALID,61,VALID,0.570703,
2012-06-07, 01:25:04,VALID,914.187,VALID,0,VALID,86.6096,VALID,0,VALID,20.756,VALID,292,VALID,0.705859,
2012-06-07, 01:26:04,VALID,914.152,VALID,0,VALID,86.4648,VALID,0,VALID,20.7755,VALID,160,VALID,0.611328,
2012-06-07, 01:27:04,VALID,914.169,VALID,0,VALID,86.7011,VALID,0,VALID,20.8145,VALID,31,VALID,1.67656,
2012-06-07, 01:28:04,VALID,914.13,VALID,0,VALID,86.6325,VALID,0,VALID,20.795,VALID,60,VALID,0.777344,
2012-06-07, 01:29:04,VALID,914.159,VALID,0,VALID,86.5639,VALID,0,VALID,20.7739,VALID,63,VALID,1.47031,
2012-06-07, 01:30:04,VALID,914.145,VALID,0,VALID,86.5639,VALID,0,VALID,20.795,VALID,94,VALID,1.55742,
2012-06-07, 01:31:04,VALID,914.128,VALID,0,VALID,86.1294,VALID,0,VALID,20.8145,VALID,241,VALID,1.08594,
2012-06-07, 01:32:04,VALID,914.075,VALID,0,VALID,86.2056,VALID,0,VALID,20.8535,VALID,5,VALID,1.62773,
2012-06-07, 01:33:04,VALID,914.044,VALID,0,VALID,85.9235,VALID,0,VALID,20.873,VALID,37,VALID,1.27383,
2012-06-07, 01:34:04,VALID,914.116,VALID,0,VALID,85.8702,VALID,0,VALID,20.873,VALID,346,VALID,0.762109,
2012-06-07, 01:35:04,VALID,914.1,VALID,0,VALID,86.2742,VALID,0,VALID,20.9331,VALID,55,VALID,1.15977,
2012-06-07, 01:36:04,VALID,914.049,VALID,0,VALID,85.9159,VALID,0,VALID,20.9316,VALID,6,VALID,1.51563,
2012-06-07, 01:37:04,VALID,914.05,VALID,0,VALID,85.5652,VALID,0,VALID,20.8925,VALID,309,VALID,0.792969,
2012-06-07, 01:38:04,VALID,914.061,VALID,0,VALID,85.9769,VALID,0,VALID,20.912,VALID,31,VALID,1.32109,
2012-06-07, 01:39:04,VALID,914.052,VALID,0,VALID,86.0303,VALID,0,VALID,20.912,VALID,135,VALID,0.522656,
2012-06-07, 01:40:04,VALID,914.049,VALID,0,VALID,86.1446,VALID,0,VALID,20.912,VALID,92,VALID,0.846094,
2012-06-07, 01:41:04,VALID,914,VALID,0,VALID,85.9388,VALID,0,VALID,20.912,VALID,106,VALID,0.726172,
2012-06-07, 01:42:04,VALID,914.014,VALID,0,VALID,86.3352,VALID,0,VALID,20.912,VALID,92,VALID,0.566406,
2012-06-07, 01:43:04,VALID,914.01,VALID,0,VALID,86.5868,VALID,0,VALID,20.8925,VALID,168,VALID,0.551562,
2012-06-07, 01:44:04,VALID,913.992,VALID,0,VALID,86.8993,VALID,0,VALID,20.873,VALID,10,VALID,0.561719,
2012-06-07, 01:45:04,VALID,914.016,VALID,0,VALID,86.4648,VALID,0,VALID,20.8535,VALID,2,VALID,0.622266,
2012-06-07, 01:46:04,VALID,914.02,VALID,0,VALID,87.0289,VALID,0,VALID,20.834,VALID,43,VALID,1.86953,
2012-06-07, 01:47:04,VALID,914.002,VALID,0,VALID,87.2805,VALID,0,VALID,20.8145,VALID,36,VALID,0.398438,
2012-06-07, 01:48:04,VALID,914.043,VALID,0,VALID,87.2347,VALID,0,VALID,20.7739,VALID,57,VALID,0.830078,
2012-06-07, 01:49:04,VALID,914.041,VALID,0,VALID,87.1128,VALID,0,VALID,20.7755,VALID,48,VALID,1.14648,
2012-06-07, 01:50:04,VALID,914.026,VALID,0,VALID,87.2119,VALID,0,VALID,20.756,VALID,48,VALID,1.33594,
2012-06-07, 01:51:04,VALID,913.991,VALID,0,VALID,87.5473,VALID,0,VALID,20.7349,VALID,53,VALID,1.53867,
2012-06-07, 01:52:04,VALID,913.987,VALID,0,VALID,87.2119,VALID,0,VALID,20.756,VALID,36,VALID,0.305859,
2012-06-07, 01:53:04,VALID,913.952,VALID,0,VALID,87.0213,VALID,0,VALID,20.756,VALID,26,VALID,2.28789,
2012-06-07, 01:54:04,VALID,913.973,VALID,0,VALID,87.1128,VALID,0,VALID,20.795,VALID,76,VALID,1.14805,
2012-06-07, 01:55:04,VALID,913.921,VALID,0,VALID,86.7392,VALID,0,VALID,20.7739,VALID,26,VALID,2.44766,
2012-06-07, 01:56:04,VALID,913.973,VALID,0,VALID,86.3962,VALID,0,VALID,20.834,VALID,6,VALID,0.726172,
2012-06-07, 01:57:04,VALID,913.935,VALID,0,VALID,86.7316,VALID,0,VALID,20.8535,VALID,357,VALID,0.929688,
2012-06-07, 01:58:04,VALID,913.955,VALID,0,VALID,86.8688,VALID,0,VALID,20.834,VALID,22,VALID,1.85625,
2012-06-07, 01:59:04,VALID,913.96,VALID,0,VALID,86.8993,VALID,0,VALID,20.8324,VALID,27,VALID,1.45508,
2012-06-07, 02:00:04,VALID,913.948,VALID,0,VALID,86.7392,VALID,0,VALID,20.834,VALID,14,VALID,1.15703,
2012-06-07, 02:01:04,VALID,913.949,VALID,0,VALID,86.6935,VALID,0,VALID,20.834,VALID,38,VALID,1.44219,
2012-06-07, 02:02:04,VALID,913.975,VALID,0,VALID,86.7468,VALID,0,VALID,20.834,VALID,10,VALID,1.63633,
2012-06-07, 02:03:04,VALID,913.96,VALID,0,VALID,86.5182,VALID,0,VALID,20.873,VALID,29,VALID,2.08477,
2012-06-07, 02:04:04,VALID,913.986,VALID,0,VALID,86.7011,VALID,0,VALID,20.873,VALID,45,VALID,0.973047,
2012-06-07, 02:05:04,VALID,913.979,VALID,0,VALID,86.3123,VALID,0,VALID,20.873,VALID,48,VALID,1.82227,
2012-06-07, 02:06:04,VALID,913.958,VALID,0,VALID,86.7468,VALID,0,VALID,20.873,VALID,38,VALID,1.73047,
2012-06-07, 02:07:04,VALID,913.936,VALID,0,VALID,86.5715,VALID,0,VALID,20.8535,VALID,18,VALID,2.19414,
2012-06-07, 02:08:04,VALID,913.89,VALID,0,VALID,86.6325,VALID,0,VALID,20.8324,VALID,354,VALID,1.23672,
2012-06-07, 02:09:04,VALID,913.964,VALID,0,VALID,86.8993,VALID,0,VALID,20.8324,VALID,3,VALID,0.704687,
2012-06-07, 02:10:04,VALID,913.923,VALID,0,VALID,86.8536,VALID,0,VALID,20.8535,VALID,110,VALID,0.930078,
2012-06-07, 02:11:04,VALID,913.89,VALID,0,VALID,86.724,VALID,0,VALID,20.8535,VALID,33,VALID,2.29141,
2012-06-07, 02:12:04,VALID,913.93,VALID,0,VALID,86.3962,VALID,0,VALID,20.8535,VALID,31,VALID,2.36758,
2012-06-07, 02:13:04,VALID,913.915,VALID,0,VALID,86.3428,VALID,0,VALID,20.8925,VALID,29,VALID,1.69766,
2012-06-07, 02:14:04,VALID,913.875,VALID,0,VALID,86.541,VALID,0,VALID,20.8925,VALID,28,VALID,2.47422,
2012-06-07, 02:15:04,VALID,913.883,VALID,0,VALID,86.8536,VALID,0,VALID,20.8925,VALID,36,VALID,2.42734,
2012-06-07, 02:16:04,VALID,913.871,VALID,0,VALID,87.0137,VALID,0,VALID,20.8535,VALID,27,VALID,2.12148,
2012-06-07, 02:17:04,VALID,913.886,VALID,0,VALID,87.4253,VALID,0,VALID,20.8129,VALID,33,VALID,2.34141,
2012-06-07, 02:18:04,VALID,913.888,VALID,0,VALID,86.9832,VALID,0,VALID,20.8145,VALID,10,VALID,1.50469,
2012-06-07, 02:19:04,VALID,913.878,VALID,0,VALID,87.067,VALID,0,VALID,20.834,VALID,25,VALID,1.57422,
2012-06-07, 02:20:04,VALID,913.87,VALID,0,VALID,86.7773,VALID,0,VALID,20.8145,VALID,20,VALID,1.85859,
2012-06-07, 02:21:04,VALID,913.832,VALID,0,VALID,86.785,VALID,0,VALID,20.834,VALID,32,VALID,2.02773,
2012-06-07, 02:22:04,VALID,913.853,VALID,0,VALID,86.8383,VALID,0,VALID,20.834,VALID,11,VALID,0.567578,
2012-06-07, 02:23:04,VALID,913.854,VALID,0,VALID,86.8917,VALID,0,VALID,20.8129,VALID,63,VALID,1.37656,
2012-06-07, 02:24:04,VALID,913.868,VALID,0,VALID,86.9679,VALID,0,VALID,20.7934,VALID,359,VALID,0.490625,
2012-06-07, 02:25:04,VALID,913.806,VALID,0,VALID,87.2424,VALID,0,VALID,20.8145,VALID,39,VALID,2.2457,
2012-06-07, 02:26:04,VALID,913.885,VALID,0,VALID,87.6922,VALID,0,VALID,20.7755,VALID,355,VALID,1.30547,
2012-06-07, 02:27:04,VALID,913.859,VALID,0,VALID,87.9361,VALID,0,VALID,20.756,VALID,359,VALID,1.38437,
2012-06-07, 02:28:04,VALID,913.883,VALID,0,VALID,88.02,VALID,0,VALID,20.7365,VALID,22,VALID,1.79219,
2012-06-07, 02:29:04,VALID,913.842,VALID,0,VALID,88.0733,VALID,0,VALID,20.717,VALID,344,VALID,0.526953,
2012-06-07, 02:30:04,VALID,913.792,VALID,0,VALID,88.1572,VALID,0,VALID,20.6959,VALID,38,VALID,2.55039,
2012-06-07, 02:31:04,VALID,913.815,VALID,0,VALID,87.9132,VALID,0,VALID,20.717,VALID,36,VALID,1.80391,
2012-06-07, 02:32:04,VALID,913.8,VALID,0,VALID,88.0047,VALID,0,VALID,20.6959,VALID,36,VALID,1.2668,
2012-06-07, 02:33:04,VALID,913.835,VALID,0,VALID,88.0276,VALID,0,VALID,20.7154,VALID,4,VALID,0.900781,
2012-06-07, 02:34:04,VALID,913.832,VALID,0,VALID,87.6388,VALID,0,VALID,20.717,VALID,23,VALID,1.6543,
2012-06-07, 02:35:04,VALID,913.843,VALID,0,VALID,87.6312,VALID,0,VALID,20.7365,VALID,42,VALID,0.912891,
2012-06-07, 02:36:04,VALID,913.802,VALID,0,VALID,87.7531,VALID,0,VALID,20.7365,VALID,24,VALID,0.911328,
2012-06-07, 02:37:04,VALID,913.816,VALID,0,VALID,87.959,VALID,0,VALID,20.6959,VALID,357,VALID,1.11836,
2012-06-07, 02:38:04,VALID,913.81,VALID,0,VALID,87.898,VALID,0,VALID,20.6975,VALID,27,VALID,1.96172,
2012-06-07, 02:39:04,VALID,913.79,VALID,0,VALID,87.776,VALID,0,VALID,20.6975,VALID,27,VALID,1.8918,
2012-06-07, 02:40:04,VALID,913.815,VALID,0,VALID,87.7379,VALID,0,VALID,20.717,VALID,29,VALID,0.800781,
2012-06-07, 02:41:04,VALID,913.802,VALID,0,VALID,87.9056,VALID,0,VALID,20.717,VALID,29,VALID,0.734375,
2012-06-07, 02:42:04,VALID,913.828,VALID,0,VALID,88.1191,VALID,0,VALID,20.717,VALID,29,VALID,0.840234,
2012-06-07, 02:43:04,VALID,913.783,VALID,0,VALID,88.0123,VALID,0,VALID,20.6764,VALID,42,VALID,1.08828,
2012-06-07, 02:44:04,VALID,913.827,VALID,0,VALID,88.2944,VALID,0,VALID,20.6569,VALID,40,VALID,0.480078,
2012-06-07, 02:45:04,VALID,913.83,VALID,0,VALID,88.241,VALID,0,VALID,20.6585,VALID,45,VALID,1.19844,
2012-06-07, 02:46:04,VALID,913.814,VALID,0,VALID,88.4316,VALID,0,VALID,20.6585,VALID,32,VALID,0.841016,
2012-06-07, 02:47:04,VALID,913.777,VALID,0,VALID,88.4164,VALID,0,VALID,20.639,VALID,33,VALID,1.05273,
2012-06-07, 02:48:04,VALID,913.83,VALID,0,VALID,88.5612,VALID,0,VALID,20.6194,VALID,85,VALID,1.02148,
2012-06-07, 02:49:04,VALID,913.853,VALID,0,VALID,88.5307,VALID,0,VALID,20.5999,VALID,47,VALID,0.245703,
2012-06-07, 02:50:04,VALID,913.823,VALID,0,VALID,88.4545,VALID,0,VALID,20.5999,VALID,47,VALID,1.69336,
2012-06-07, 02:51:04,VALID,913.819,VALID,0,VALID,88.5765,VALID,0,VALID,20.5999,VALID,80,VALID,1.30703,
2012-06-07, 02:52:04,VALID,913.823,VALID,0,VALID,88.424,VALID,0,VALID,20.5999,VALID,127,VALID,0.917969,
2012-06-07, 02:53:04,VALID,913.826,VALID,0,VALID,88.3325,VALID,0,VALID,20.5999,VALID,36,VALID,0.887891,
2012-06-07, 02:54:04,VALID,913.847,VALID,0,VALID,88.3325,VALID,0,VALID,20.5999,VALID,36,VALID,0.483984,
2012-06-07, 02:55:04,VALID,913.839,VALID,0,VALID,88.2182,VALID,0,VALID,20.5789,VALID,52,VALID,0.770703,
2012-06-07, 02:56:04,VALID,913.83,VALID,0,VALID,88.3401,VALID,0,VALID,20.5999,VALID,9,VALID,1.02891,
2012-06-07, 02:57:04,VALID,913.836,VALID,0,VALID,88.5384,VALID,0,VALID,20.5804,VALID,32,VALID,1.05898,
2012-06-07, 02:58:04,VALID,913.795,VALID,0,VALID,88.7061,VALID,0,VALID,20.5804,VALID,33,VALID,1.27383,
2012-06-07, 02:59:04,VALID,913.842,VALID,0,VALID,88.9195,VALID,0,VALID,20.5399,VALID,34,VALID,1.27656,
2012-06-07, 03:00:04,VALID,913.843,VALID,0,VALID,89.011,VALID,0,VALID,20.5219,VALID,21,VALID,0.763281,
2012-06-07, 03:01:04,VALID,913.842,VALID,0,VALID,89.0872,VALID,0,VALID,20.5219,VALID,20,VALID,0.355859,
2012-06-07, 03:02:04,VALID,913.779,VALID,0,VALID,89.0796,VALID,0,VALID,20.5024,VALID,36,VALID,1.95977,
2012-06-07, 03:03:04,VALID,913.848,VALID,0,VALID,89.4074,VALID,0,VALID,20.5024,VALID,17,VALID,0.757813,
2012-06-07, 03:04:04,VALID,913.807,VALID,0,VALID,89.3846,VALID,0,VALID,20.4634,VALID,21,VALID,1.74258,
2012-06-07, 03:05:04,VALID,913.835,VALID,0,VALID,89.4379,VALID,0,VALID,20.4228,VALID,356,VALID,1.05781,
2012-06-07, 03:06:04,VALID,913.853,VALID,0,VALID,89.1101,VALID,0,VALID,20.4634,VALID,29,VALID,0.458594,
2012-06-07, 03:07:04,VALID,913.841,VALID,0,VALID,88.7747,VALID,0,VALID,20.4829,VALID,182,VALID,0.746875,
2012-06-07, 03:08:04,VALID,913.843,VALID,0,VALID,88.8357,VALID,0,VALID,20.5009,VALID,32,VALID,1.20039,
2012-06-07, 03:09:04,VALID,913.863,VALID,0,VALID,88.7975,VALID,0,VALID,20.5009,VALID,38,VALID,1.64414,
2012-06-07, 03:10:04,VALID,913.816,VALID,0,VALID,88.9043,VALID,0,VALID,20.5219,VALID,16,VALID,2.20039,
2012-06-07, 03:11:04,VALID,913.843,VALID,0,VALID,88.8967,VALID,0,VALID,20.5219,VALID,338,VALID,1.36992,
2012-06-07, 03:12:04,VALID,913.852,VALID,0,VALID,89.0339,VALID,0,VALID,20.5009,VALID,345,VALID,1.01406,
2012-06-07, 03:13:04,VALID,913.802,VALID,0,VALID,89.1025,VALID,0,VALID,20.4813,VALID,12,VALID,0.412891,
2012-06-07, 03:14:04,VALID,913.82,VALID,0,VALID,89.1559,VALID,0,VALID,20.4829,VALID,41,VALID,2.25391,
2012-06-07, 03:15:04,VALID,913.804,VALID,0,VALID,89.1711,VALID,0,VALID,20.4618,VALID,43,VALID,1.28594,
2012-06-07, 03:16:04,VALID,913.79,VALID,0,VALID,89.2016,VALID,0,VALID,20.4829,VALID,27,VALID,1.57969,
2012-06-07, 03:17:04,VALID,913.824,VALID,0,VALID,89.3236,VALID,0,VALID,20.4634,VALID,37,VALID,0.297266,
2012-06-07, 03:18:04,VALID,913.838,VALID,0,VALID,89.1482,VALID,0,VALID,20.4634,VALID,338,VALID,1.17422,
2012-06-07, 03:19:04,VALID,913.777,VALID,0,VALID,89.255,VALID,0,VALID,20.4634,VALID,40,VALID,0.976172,
2012-06-07, 03:20:04,VALID,913.79,VALID,0,VALID,89.4532,VALID,0,VALID,20.4634,VALID,22,VALID,1.5543,
2012-06-07, 03:21:04,VALID,913.711,VALID,0,VALID,89.476,VALID,0,VALID,20.4244,VALID,33,VALID,2.20117,
2012-06-07, 03:22:04,VALID,913.718,VALID,0,VALID,89.4684,VALID,0,VALID,20.4454,VALID,20,VALID,1.83477,
2012-06-07, 03:23:04,VALID,913.676,VALID,0,VALID,89.2092,VALID,0,VALID,20.4244,VALID,31,VALID,1.93984,
2012-06-07, 03:24:04,VALID,913.679,VALID,0,VALID,89.0491,VALID,0,VALID,20.4634,VALID,24,VALID,2.50664,
2012-06-07, 03:25:04,VALID,913.696,VALID,0,VALID,88.8204,VALID,0,VALID,20.5024,VALID,27,VALID,2.06094,
2012-06-07, 03:26:04,VALID,913.728,VALID,0,VALID,88.668,VALID,0,VALID,20.5414,VALID,34,VALID,2.10898,
2012-06-07, 03:27:04,VALID,913.648,VALID,0,VALID,88.6527,VALID,0,VALID,20.5804,VALID,35,VALID,1.1582,
2012-06-07, 03:28:04,VALID,913.746,VALID,0,VALID,88.6832,VALID,0,VALID,20.5999,VALID,40,VALID,1.82578,
2012-06-07, 03:29:04,VALID,913.757,VALID,0,VALID,88.3401,VALID,0,VALID,20.621,VALID,40,VALID,1.2457,
2012-06-07, 03:30:04,VALID,913.78,VALID,0,VALID,88.7366,VALID,0,VALID,20.639,VALID,17,VALID,1.56719,
2012-06-07, 03:31:04,VALID,913.83,VALID,0,VALID,88.6451,VALID,0,VALID,20.5999,VALID,354,VALID,1.10625,
2012-06-07, 03:32:04,VALID,913.749,VALID,0,VALID,88.607,VALID,0,VALID,20.6194,VALID,47,VALID,1.98867,
2012-06-07, 03:33:04,VALID,913.752,VALID,0,VALID,88.7442,VALID,0,VALID,20.6194,VALID,61,VALID,0.664453,
2012-06-07, 03:34:04,VALID,913.795,VALID,0,VALID,88.5993,VALID,0,VALID,20.6194,VALID,43,VALID,1.11016,
2012-06-07, 03:35:04,VALID,913.756,VALID,0,VALID,88.7518,VALID,0,VALID,20.5999,VALID,33,VALID,2.53281,
2012-06-07, 03:36:04,VALID,913.783,VALID,0,VALID,88.9195,VALID,0,VALID,20.5789,VALID,273,VALID,1.53828,
2012-06-07, 03:37:04,VALID,913.775,VALID,0,VALID,88.9653,VALID,0,VALID,20.6405,VALID,28,VALID,2.05117,
2012-06-07, 03:38:04,VALID,913.758,VALID,0,VALID,89.133,VALID,0,VALID,20.5999,VALID,35,VALID,1.39531,
2012-06-07, 03:39:04,VALID,913.781,VALID,0,VALID,88.9729,VALID,0,VALID,20.5999,VALID,32,VALID,1.66602,
2012-06-07, 03:40:04,VALID,913.741,VALID,0,VALID,89.2931,VALID,0,VALID,20.5804,VALID,356,VALID,1.0832,
2012-06-07, 03:41:04,VALID,913.785,VALID,0,VALID,89.3007,VALID,0,VALID,20.5609,VALID,341,VALID,2.05703,
2012-06-07, 03:42:04,VALID,913.694,VALID,0,VALID,89.1559,VALID,0,VALID,20.5414,VALID,37,VALID,2.66875,
2012-06-07, 03:43:04,VALID,913.804,VALID,0,VALID,89.0872,VALID,0,VALID,20.5609,VALID,6,VALID,0.641016,
2012-06-07, 03:44:04,VALID,913.805,VALID,0,VALID,89.011,VALID,0,VALID,20.5999,VALID,18,VALID,0.712109,
2012-06-07, 03:45:04,VALID,913.77,VALID,0,VALID,89.3312,VALID,0,VALID,20.5999,VALID,10,VALID,0.586719,
2012-06-07, 03:46:04,VALID,913.761,VALID,0,VALID,89.0339,VALID,0,VALID,20.5594,VALID,335,VALID,2.15508,